| time (UTC) | temp F | wind direction | speed MPH | gust MPH | rain 1hr in | rain 24hr in | rain mn in | humidity % | barometer mb |
| 20260502214527 | 70 | 225 | 2.0 | 7.0 | 0.02 | 0.03 | 0.03 | 96 | 1011.0 |
| 20260502213957 | 70 | 236 | 2.0 | 4.0 | 0.02 | 0.03 | 0.03 | 95 | 1010.9 |
| 20260502213458 | 70 | 264 | 2.0 | 4.0 | 0.02 | 0.03 | 0.03 | 95 | 1011.1 |
| 20260502212958 | 70 | 270 | 3.0 | 8.0 | 0.02 | 0.03 | 0.03 | 95 | 1011.3 |
| 20260502211857 | 70 | 274 | 4.0 | 8.0 | 0.02 | 0.03 | 0.03 | 94 | 1011.3 |
| 20260502210827 | 70 | 272 | 3.0 | 12.0 | 0.02 | 0.03 | 0.03 | 94 | 1011.5 |
| 20260502205728 | 70 | 273 | 2.0 | 7.0 | 0.02 | 0.02 | 0.02 | 93 | 1011.3 |
| 20260502205329 | 70 | 277 | 2.0 | 7.0 | 0.02 | 0.02 | 0.02 | 92 | 1011.1 |
| 20260502205228 | 70 | 277 | 2.0 | 7.0 | 0.02 | 0.02 | 0.02 | 92 | 1011.1 |
| 20260502204834 | 70 | 278 | 3.0 | 8.0 | 0.01 | 0.01 | 0.01 | 91 | 1011.0 |
| 20260502204728 | 70 | 278 | 3.0 | 8.0 | 0.01 | 0.01 | 0.01 | 91 | 1011.0 |
| 20260502204228 | 71 | 272 | 3.0 | 8.0 | 0.01 | 0.01 | 0.01 | 91 | 1010.9 |
| 20260502203728 | 71 | 276 | 3.0 | 7.0 | 0.01 | 0.01 | 0.01 | 90 | 1011.4 |
| 20260502203157 | 71 | 294 | 2.0 | 4.0 | 0.01 | 0.01 | 0.01 | 89 | 1011.1 |
| 20260502202158 | 71 | 302 | 3.0 | 6.0 | 0.01 | 0.01 | 0.01 | 89 | 1011.5 |
| 20260502200628 | 74 | 317 | 7.0 | 14.0 | 0.01 | 0.01 | 0.01 | 84 | 1011.9 |
| 20260502200058 | 78 | 303 | 8.0 | 14.0 | 0.00 | 0.00 | 0.00 | 75 | 1011.7 |
| 20260502195527 | 82 | 278 | 6.0 | 14.0 | 0.00 | 0.00 | 0.00 | 79 | 1011.8 |
| 20260502194958 | 82 | 279 | 4.0 | 9.0 | 0.00 | 0.00 | 0.00 | 78 | 1011.3 |
| 20260502194457 | 82 | 268 | 4.0 | 12.0 | 0.00 | 0.00 | 0.00 | 78 | 1011.2 |
| 20260502193958 | 83 | 263 | 5.0 | 12.0 | 0.00 | 0.00 | 0.00 | 78 | 1011.2 |
| 20260502193458 | 83 | 264 | 4.0 | 12.0 | 0.00 | 0.00 | 0.00 | 78 | 1011.2 |
| 20260502192957 | 83 | 260 | 4.0 | 12.0 | 0.00 | 0.00 | 0.00 | 77 | 1011.1 |
| 20260502192457 | 83 | 263 | 4.0 | 8.0 | 0.00 | 0.00 | 0.00 | 78 | 1011.0 |
| 20260502191927 | 83 | 268 | 4.0 | 8.0 | 0.00 | 0.00 | 0.00 | 78 | 1010.9 |
| 20260502191357 | 83 | 272 | 4.0 | 10.0 | 0.00 | 0.00 | 0.00 | 78 | 1011.1 |
| 20260502190827 | 83 | 275 | 5.0 | 11.0 | 0.00 | 0.00 | 0.00 | 77 | 1011.1 |
| 20260502190330 | 83 | 276 | 5.0 | 11.0 | 0.00 | 0.00 | 0.00 | 77 | 1011.3 |
| 20260502185757 | 84 | 272 | 5.0 | 10.0 | 0.00 | 0.00 | 0.00 | 76 | 1011.2 |
| 20260502184757 | 84 | 257 | 6.0 | 13.0 | 0.00 | 0.00 | 0.00 | 74 | 1011.0 |
| 20260502184228 | 84 | 259 | 6.0 | 11.0 | 0.00 | 0.00 | 0.00 | 72 | 1011.1 |
| 20260502183728 | 84 | 264 | 6.0 | 11.0 | 0.00 | 0.00 | 0.00 | 72 | 1011.0 |
| 20260502183157 | 84 | 266 | 6.0 | 14.0 | 0.00 | 0.00 | 0.00 | 71 | 1011.2 |
| 20260502182628 | 85 | 264 | 5.0 | 14.0 | 0.00 | 0.00 | 0.00 | 71 | 1011.3 |
| 20260502182127 | 85 | 261 | 5.0 | 13.0 | 0.00 | 0.00 | 0.00 | 71 | 1011.3 |
| 20260502181627 | 85 | 256 | 5.0 | 14.0 | 0.00 | 0.00 | 0.00 | 71 | 1011.2 |
| 20260502181128 | 85 | 255 | 5.0 | 14.0 | 0.00 | 0.00 | 0.00 | 71 | 1011.1 |
| 20260502180628 | 85 | 257 | 6.0 | 13.0 | 0.00 | 0.00 | 0.00 | 71 | 1011.1 |
| 20260502170158 | 84 | 271 | 3.0 | 8.0 | 0.00 | 0.00 | 0.00 | 73 | 1011.1 |
| 20260502163958 | 84 | 264 | 3.0 | 8.0 | 0.00 | 0.00 | 0.00 | 73 | 1011.3 |
| 20260502163458 | 85 | 250 | 3.0 | 11.0 | 0.00 | 0.00 | 0.00 | 73 | 1011.2 |
| 20260502161927 | 85 | 246 | 5.0 | 11.0 | 0.00 | 0.00 | 0.00 | 72 | 1011.5 |
| 20260502160927 | 85 | 246 | 4.0 | 13.0 | 0.00 | 0.00 | 0.00 | 73 | 1011.5 |
| 20260502152228 | 82 | 237 | 3.0 | 10.0 | 0.00 | 0.00 | 0.00 | 80 | 1011.7 |
| 20260502151727 | 81 | 249 | 3.0 | 10.0 | 0.00 | 0.00 | 0.00 | 80 | 1011.8 |
| 20260502151228 | 81 | 259 | 4.0 | 9.0 | 0.00 | 0.00 | 0.00 | 81 | 1011.8 |
| 20260502150728 | 81 | 254 | 3.0 | 9.0 | 0.00 | 0.00 | 0.00 | 81 | 1011.7 |
| 20260502150227 | 81 | 243 | 3.0 | 8.0 | 0.00 | 0.00 | 0.00 | 81 | 1011.7 |
| 20260502140128 | 78 | 239 | 4.0 | 10.0 | 0.00 | 0.00 | 0.00 | 84 | 1011.6 |
| 20260502123257 | 73 | 193 | 3.0 | 8.0 | 0.00 | 0.00 | 0.00 | 93 | 1010.8 |
| 20260502122157 | 72 | 197 | 2.0 | 6.0 | 0.00 | 0.00 | 0.00 | 94 | 1010.8 |
| 20260502120848 | 72 | 200 | 2.0 | 7.0 | 0.00 | 0.00 | 0.00 | 95 | 1010.6 |
| 20260502120628 | 72 | 200 | 2.0 | 7.0 | 0.00 | 0.00 | 0.00 | 95 | 1010.6 |
| 20260502115557 | 71 | 204 | 2.0 | 7.0 | 0.00 | 0.00 | 0.00 | 97 | 1010.9 |
| 20260502115027 | 71 | 206 | 3.0 | 7.0 | 0.00 | 0.00 | 0.00 | 98 | 1010.9 |
| 20260502114457 | 71 | 201 | 2.0 | 6.0 | 0.00 | 0.00 | 0.00 | 98 | 1010.7 |
| 20260502113957 | 71 | 208 | 2.0 | 5.0 | 0.00 | 0.00 | 0.00 | 98 | 1010.8 |
| 20260502113458 | 71 | 203 | 3.0 | 6.0 | 0.00 | 0.00 | 0.00 | 98 | 1010.8 |
| 20260502112927 | 71 | 197 | 3.0 | 7.0 | 0.00 | 0.00 | 0.00 | 98 | 1010.7 |
| 20260502112357 | 71 | 199 | 2.0 | 7.0 | 0.00 | 0.00 | 0.00 | 99 | 1010.7 |
| 20260502111858 | 71 | 190 | 2.0 | 6.0 | 0.00 | 0.00 | 0.00 | 99 | 1010.6 |
| 20260502111357 | 71 | 195 | 2.0 | 7.0 | 0.00 | 0.00 | 0.00 | 99 | 1010.7 |
| 20260502110828 | 71 | 207 | 2.0 | 7.0 | 0.00 | 0.00 | 0.00 | 99 | 1010.7 |
| 20260502105727 | 71 | 243 | 1.0 | 4.0 | 0.00 | 0.00 | 0.00 | 99 | 1010.6 |
| 20260502104227 | 71 | 235 | 1.0 | 4.0 | 0.00 | 0.00 | 0.00 | 99 | 1010.4 |
| 20260502103727 | 70 | 240 | 1.0 | 4.0 | 0.00 | 0.00 | 0.00 | 99 | 1010.3 |
| 20260502103227 | 70 | 228 | 1.0 | 4.0 | 0.00 | 0.00 | 0.00 | 99 | 1010.3 |
| 20260502102127 | 70 | 212 | 1.0 | 3.0 | 0.00 | 0.00 | 0.00 | 99 | 1010.1 |
| 20260502101628 | 70 | 210 | 1.0 | 3.0 | 0.00 | 0.00 | 0.00 | 99 | 1010.2 |
| 20260502101057 | 70 | 215 | 1.0 | 3.0 | 0.00 | 0.00 | 0.00 | 99 | 1010.2 |
| 20260502100558 | 70 | 211 | 1.0 | 3.0 | 0.00 | 0.00 | 0.00 | 99 | 1010.2 |
| 20260502091327 | 70 | 241 | 1.0 | 3.0 | 0.00 | 0.00 | 0.00 | 97 | 1010.8 |
| 20260502090757 | 70 | 242 | 2.0 | 3.0 | 0.00 | 0.00 | 0.00 | 97 | 1010.8 |
| 20260502090257 | 70 | 241 | 2.0 | 5.0 | 0.00 | 0.00 | 0.00 | 98 | 1010.9 |
| 20260502071227 | 70 | 237 | 1.0 | 2.0 | 0.00 | 0.00 | 0.00 | 96 | 1011.2 |
| 20260502070158 | 71 | 246 | 1.0 | 3.0 | 0.00 | 0.00 | 0.00 | 95 | 1011.1 |
| 20260502065627 | 71 | 247 | 2.0 | 3.0 | 0.00 | 0.00 | 0.00 | 95 | 1011.1 |
| 20260502065127 | 71 | 244 | 1.0 | 3.0 | 0.00 | 0.00 | 0.00 | 95 | 1011.2 |
| 20260502064627 | 71 | 244 | 1.0 | 3.0 | 0.00 | 0.00 | 0.00 | 95 | 1011.3 |
| 20260502064127 | 71 | 251 | 1.0 | 2.0 | 0.00 | 0.00 | 0.00 | 95 | 1011.3 |
| 20260502063127 | 71 | 236 | 1.0 | 3.0 | 0.00 | 0.00 | 0.00 | 95 | 1011.7 |
| 20260502061527 | 70 | 235 | 1.0 | 2.0 | 0.00 | 0.00 | 0.00 | 94 | 1011.5 |
| 20260502060957 | 70 | 236 | 1.0 | 2.0 | 0.00 | 0.00 | 0.00 | 94 | 1011.6 |
| 20260502060457 | 71 | 236 | 1.0 | 2.0 | 0.00 | 0.00 | 0.00 | 93 | 1011.7 |
| 20260502055957 | 71 | 236 | 1.0 | 2.0 | 0.00 | 0.00 | 0.00 | 93 | 1011.7 |
| 20260502055427 | 71 | 232 | 1.0 | 3.0 | 0.00 | 0.00 | 0.00 | 93 | 1011.7 |
| 20260502054927 | 71 | 227 | 0.0 | 3.0 | 0.00 | 0.00 | 0.00 | 93 | 1011.6 |
| 20260502054427 | 71 | 221 | 0.0 | 1.0 | 0.00 | 0.00 | 0.00 | 93 | 1011.7 |
| 20260502053858 | 71 | 221 | 0.0 | 1.0 | 0.00 | 0.00 | 0.00 | 93 | 1011.8 |
| 20260502053357 | 71 | 221 | 0.0 | 1.0 | 0.00 | 0.00 | 0.00 | 92 | 1011.7 |
| 20260502052257 | 71 | 221 | 0.0 | 1.0 | 0.00 | 0.00 | 0.00 | 92 | 1011.8 |
| 20260502051757 | 72 | 0 | 0.0 | 0.0 | 0.00 | 0.00 | 0.00 | 91 | 1011.9 |
| 20260502051227 | 72 | 0 | 0.0 | 0.0 | 0.00 | 0.00 | 0.00 | 91 | 1011.9 |
| 20260502050127 | 72 | 221 | 0.0 | 1.0 | 0.00 | 0.00 | 0.00 | 90 | 1011.9 |
| 20260502045627 | 72 | 221 | 0.0 | 1.0 | 0.00 | 0.00 | 0.00 | 90 | 1011.9 |
| 20260502045057 | 72 | 221 | 0.0 | 1.0 | 0.00 | 0.00 | 0.00 | 90 | 1011.9 |
| 20260502044557 | 72 | 0 | 0.0 | 0.0 | 0.00 | 0.00 | 0.00 | 89 | 1012.0 |
| 20260502043527 | 72 | 226 | 0.0 | 2.0 | 0.00 | 0.00 | 0.00 | 88 | 1012.0 |
| 20260502042957 | 72 | 275 | 0.0 | 2.0 | 0.00 | 0.00 | 0.00 | 88 | 1011.9 |
| 20260502042457 | 73 | 303 | 0.0 | 1.0 | 0.00 | 0.00 | 0.00 | 88 | 1012.0 |
| 20260502042144 | 73 | 0 | 0.0 | 0.0 | 0.00 | 0.00 | 0.00 | 87 | 1012.0 |
| 20260502041927 | 73 | 0 | 0.0 | 0.0 | 0.00 | 0.00 | 0.00 | 87 | 1012.0 |
| 20260502041357 | 73 | 0 | 0.0 | 0.0 | 0.00 | 0.00 | 0.00 | 87 | 1012.0 |
| 20260502040857 | 73 | 0 | 0.0 | 0.0 | 0.00 | 0.00 | 0.00 | 86 | 1011.9 |
| 20260502040357 | 74 | 0 | 0.0 | 0.0 | 0.00 | 0.00 | 0.00 | 86 | 1012.0 |
| 20260502035257 | 74 | 303 | 0.0 | 1.0 | 0.00 | 0.00 | 0.00 | 85 | 1012.1 |
| 20260502034757 | 74 | 303 | 0.0 | 1.0 | 0.00 | 0.00 | 0.00 | 85 | 1012.1 |
| 20260502034257 | 74 | 303 | 0.0 | 1.0 | 0.00 | 0.00 | 0.00 | 85 | 1012.0 |
| 20260502033727 | 75 | 307 | 0.0 | 1.0 | 0.00 | 0.00 | 0.00 | 84 | 1012.0 |
| 20260502033227 | 75 | 308 | 0.0 | 1.0 | 0.00 | 0.00 | 0.00 | 84 | 1012.0 |
| 20260502032727 | 75 | 0 | 0.0 | 0.0 | 0.00 | 0.00 | 0.00 | 83 | 1011.9 |
| 20260502031656 | 76 | 325 | 0.0 | 1.0 | 0.00 | 0.00 | 0.00 | 82 | 1012.0 |
| 20260502031157 | 76 | 325 | 0.0 | 1.0 | 0.00 | 0.00 | 0.00 | 81 | 1011.8 |
| 20260502030657 | 76 | 326 | 0.0 | 2.0 | 0.00 | 0.00 | 0.00 | 81 | 1011.9 |
| 20260502030157 | 76 | 316 | 0.0 | 2.0 | 0.00 | 0.00 | 0.00 | 80 | 1011.9 |
| 20260502025627 | 76 | 296 | 1.0 | 3.0 | 0.00 | 0.00 | 0.00 | 80 | 1011.9 |
| 20260502025057 | 77 | 303 | 0.0 | 3.0 | 0.00 | 0.00 | 0.00 | 79 | 1011.8 |
| 20260502024527 | 77 | 317 | 0.0 | 2.0 | 0.00 | 0.00 | 0.00 | 78 | 1011.9 |
| 20260502023957 | 77 | 298 | 1.0 | 2.0 | 0.00 | 0.00 | 0.00 | 78 | 1011.9 |
| 20260502023457 | 77 | 304 | 1.0 | 3.0 | 0.00 | 0.00 | 0.00 | 77 | 1011.9 |
| 20260502022957 | 78 | 317 | 2.0 | 3.0 | 0.00 | 0.00 | 0.00 | 77 | 1011.8 |
| 20260502022457 | 78 | 314 | 2.0 | 2.0 | 0.00 | 0.00 | 0.00 | 77 | 1011.9 |
| 20260502021929 | 78 | 314 | 2.0 | 4.0 | 0.00 | 0.00 | 0.00 | 76 | 1011.7 |
| 20260502020427 | 79 | 326 | 2.0 | 4.0 | 0.00 | 0.00 | 0.00 | 75 | 1011.6 |
| 20260502015857 | 79 | 329 | 2.0 | 3.0 | 0.00 | 0.00 | 0.00 | 73 | 1011.8 |
| 20260502015356 | 79 | 314 | 1.0 | 2.0 | 0.00 | 0.00 | 0.00 | 73 | 1011.7 |
| 20260502014827 | 79 | 292 | 1.0 | 3.0 | 0.00 | 0.00 | 0.00 | 72 | 1011.5 |
| 20260502014326 | 80 | 290 | 1.0 | 3.0 | 0.00 | 0.00 | 0.00 | 70 | 1011.4 |
| 20260502013756 | 80 | 301 | 1.0 | 3.0 | 0.00 | 0.00 | 0.00 | 70 | 1011.3 |
| 20260502013257 | 80 | 297 | 1.0 | 5.0 | 0.00 | 0.00 | 0.00 | 69 | 1011.1 |
| 20260502012727 | 80 | 290 | 2.0 | 5.0 | 0.00 | 0.00 | 0.00 | 68 | 1011.1 |
| 20260502012227 | 80 | 284 | 2.0 | 6.0 | 0.00 | 0.00 | 0.00 | 68 | 1011.1 |
| 20260502011656 | 80 | 281 | 2.0 | 6.0 | 0.00 | 0.00 | 0.00 | 67 | 1011.0 |
| 20260502011156 | 80 | 278 | 3.0 | 7.0 | 0.00 | 0.00 | 0.00 | 66 | 1011.0 |
| 20260502010730 | 81 | 278 | 3.0 | 7.0 | 0.00 | 0.00 | 0.00 | 65 | 1011.0 |
| 20260502010626 | 81 | 278 | 3.0 | 7.0 | 0.00 | 0.00 | 0.00 | 65 | 1011.0 |
| 20260502010057 | 81 | 275 | 3.0 | 8.0 | 0.00 | 0.00 | 0.00 | 64 | 1010.9 |
| 20260502005557 | 81 | 274 | 3.0 | 8.0 | 0.00 | 0.00 | 0.00 | 63 | 1010.9 |
| 20260502003957 | 82 | 264 | 2.0 | 5.0 | 0.00 | 0.00 | 0.00 | 61 | 1010.7 |
| 20260502003456 | 82 | 267 | 3.0 | 5.0 | 0.00 | 0.00 | 0.00 | 60 | 1010.6 |
| 20260502002927 | 82 | 267 | 2.0 | 4.0 | 0.00 | 0.00 | 0.00 | 60 | 1010.6 |
| 20260502002356 | 83 | 267 | 3.0 | 7.0 | 0.00 | 0.00 | 0.00 | 59 | 1010.4 |
| 20260502001826 | 83 | 268 | 3.0 | 7.0 | 0.00 | 0.00 | 0.00 | 58 | 1010.4 |
| 20260502001257 | 83 | 270 | 3.0 | 6.0 | 0.00 | 0.00 | 0.00 | 58 | 1010.2 |
| 20260502000756 | 83 | 269 | 3.0 | 5.0 | 0.00 | 0.00 | 0.00 | 58 | 1010.2 |
| 20260502000227 | 84 | 272 | 2.0 | 5.0 | 0.00 | 0.00 | 0.00 | 58 | 1010.2 |
| 20260501235727 | 84 | 275 | 2.0 | 4.0 | 0.00 | 0.00 | 0.00 | 57 | 1010.1 |
| 20260501235156 | 84 | 274 | 3.0 | 6.0 | 0.00 | 0.00 | 0.00 | 56 | 1010.0 |
| 20260501234656 | 85 | 273 | 3.0 | 8.0 | 0.00 | 0.00 | 0.00 | 56 | 1010.0 |
| 20260501233626 | 86 | 288 | 2.0 | 6.0 | 0.00 | 0.00 | 0.00 | 55 | 1009.9 |
| 20260501233126 | 86 | 282 | 2.0 | 4.0 | 0.00 | 0.00 | 0.00 | 54 | 1009.9 |
| 20260501232557 | 86 | 271 | 2.0 | 3.0 | 0.00 | 0.00 | 0.00 | 54 | 1009.8 |
| 20260501232057 | 86 | 270 | 3.0 | 7.0 | 0.00 | 0.00 | 0.00 | 53 | 1009.8 |
| 20260501231527 | 86 | 264 | 4.0 | 10.0 | 0.00 | 0.00 | 0.00 | 53 | 1009.8 |
| 20260501230957 | 86 | 265 | 3.0 | 10.0 | 0.00 | 0.00 | 0.00 | 52 | 1009.7 |
| 20260501225956 | 87 | 269 | 3.0 | 8.0 | 0.00 | 0.00 | 0.00 | 52 | 1009.7 |
| 20260501225427 | 87 | 264 | 4.0 | 7.0 | 0.00 | 0.00 | 0.00 | 52 | 1009.5 |
| 20260501224427 | 87 | 258 | 4.0 | 9.0 | 0.00 | 0.00 | 0.00 | 52 | 1009.4 |
| 20260501224314 | 87 | 261 | 4.0 | 8.0 | 0.00 | 0.00 | 0.00 | 52 | 1009.5 |
| 20260501223856 | 87 | 261 | 4.0 | 8.0 | 0.00 | 0.00 | 0.00 | 52 | 1009.5 |
| 20260501222326 | 87 | 257 | 3.0 | 8.0 | 0.00 | 0.00 | 0.00 | 52 | 1009.5 |
| 20260501221257 | 88 | 248 | 4.0 | 7.0 | 0.00 | 0.00 | 0.00 | 51 | 1009.4 |
| 20260501220227 | 88 | 248 | 4.0 | 9.0 | 0.00 | 0.00 | 0.00 | 50 | 1009.3 |
| 20260501215726 | 89 | 250 | 3.0 | 9.0 | 0.00 | 0.00 | 0.00 | 49 | 1009.3 |
| 20260501215226 | 89 | 261 | 3.0 | 9.0 | 0.00 | 0.00 | 0.00 | 49 | 1009.3 |